| time (UTC) | temp F | wind direction | speed MPH | gust MPH | rain 1hr in | rain 24hr in | rain mn in | humidity % | barometer mb |
| 20260509173019 | 88 | 253 | 1.0 | 2.0 | 0.00 | 0.00 | 0.00 | 49 | 1011.0 |
| 20260509172025 | 86 | 224 | 3.0 | 7.0 | 0.00 | 0.00 | 0.00 | 49 | 1011.0 |
| 20260509171022 | 86 | 196 | 3.0 | 7.0 | 0.00 | 0.00 | 0.00 | 50 | 1011.2 |
| 20260509170019 | 86 | 258 | 2.0 | 6.0 | 0.00 | 0.00 | 0.00 | 49 | 1011.2 |
| 20260509165022 | 86 | 229 | 3.0 | 6.0 | 0.00 | 0.00 | 0.00 | 51 | 1011.3 |
| 20260509164020 | 85 | 202 | 2.0 | 6.0 | 0.00 | 0.00 | 0.00 | 52 | 1011.4 |
| 20260509163028 | 84 | 211 | 2.0 | 3.0 | 0.00 | 0.00 | 0.00 | 52 | 1011.4 |
| 20260509162026 | 83 | 218 | 3.0 | 7.0 | 0.00 | 0.00 | 0.00 | 53 | 1011.4 |
| 20260509161020 | 84 | 204 | 3.0 | 6.0 | 0.00 | 0.00 | 0.00 | 53 | 1011.3 |
| 20260509160043 | 83 | 256 | 2.0 | 4.0 | 0.00 | 0.00 | 0.00 | 53 | 1011.1 |
| 20260509155021 | 82 | 314 | 3.0 | 5.0 | 0.00 | 0.00 | 0.00 | 53 | 1011.0 |
| 20260509154041 | 82 | 204 | 3.0 | 4.0 | 0.00 | 0.00 | 0.00 | 55 | 1011.0 |
| 20260509153049 | 81 | 29 | 2.0 | 4.0 | 0.00 | 0.00 | 0.00 | 57 | 1011.0 |
| 20260509152025 | 80 | 171 | 2.0 | 3.0 | 0.00 | 0.00 | 0.00 | 61 | 1011.0 |
| 20260509151040 | 79 | 284 | 2.0 | 3.0 | 0.00 | 0.00 | 0.00 | 62 | 1010.9 |
| 20260509150021 | 78 | 218 | 2.0 | 6.0 | 0.00 | 0.00 | 0.00 | 66 | 1011.0 |
| 20260509145020 | 76 | 268 | 2.0 | 4.0 | 0.00 | 0.00 | 0.00 | 69 | 1011.0 |
| 20260509144028 | 76 | 235 | 1.0 | 3.0 | 0.00 | 0.00 | 0.00 | 70 | 1011.2 |
| 20260509143026 | 75 | 193 | 2.0 | 3.0 | 0.00 | 0.00 | 0.00 | 72 | 1011.2 |
| 20260509142021 | 75 | 271 | 2.0 | 4.0 | 0.00 | 0.00 | 0.00 | 73 | 1011.2 |
| 20260509141018 | 73 | 217 | 3.0 | 6.0 | 0.00 | 0.00 | 0.00 | 75 | 1011.3 |
| 20260509140020 | 74 | 198 | 3.0 | 6.0 | 0.00 | 0.00 | 0.00 | 75 | 1011.3 |
| 20260509135038 | 74 | 161 | 1.0 | 5.0 | 0.00 | 0.00 | 0.00 | 75 | 1011.1 |
| 20260509134027 | 73 | 203 | 3.0 | 6.0 | 0.00 | 0.00 | 0.00 | 78 | 1011.1 |
| 20260509133025 | 72 | 190 | 2.0 | 4.0 | 0.00 | 0.00 | 0.00 | 79 | 1010.9 |
| 20260509132023 | 71 | 181 | 1.0 | 3.0 | 0.00 | 0.00 | 0.00 | 80 | 1010.7 |
| 20260509131041 | 71 | 205 | 2.0 | 5.0 | 0.00 | 0.00 | 0.00 | 81 | 1010.9 |
| 20260509130019 | 70 | 205 | 1.0 | 2.0 | 0.00 | 0.00 | 0.00 | 83 | 1010.9 |
| 20260509125108 | 69 | 165 | 1.0 | 2.0 | 0.00 | 0.00 | 0.00 | 83 | 1010.8 |
| 20260509124026 | 68 | 62 | 0.0 | 2.0 | 0.00 | 0.00 | 0.00 | 85 | 1010.9 |
| 20260509123044 | 67 | 173 | 1.0 | 4.0 | 0.00 | 0.00 | 0.00 | 84 | 1010.8 |
| 20260509122022 | 67 | 209 | 1.0 | 2.0 | 0.00 | 0.00 | 0.00 | 84 | 1010.6 |
| 20260509121053 | 67 | 203 | 0.0 | 1.0 | 0.00 | 0.00 | 0.00 | 85 | 1010.7 |
| 20260509120030 | 67 | 212 | 1.0 | 2.0 | 0.00 | 0.00 | 0.00 | 86 | 1010.6 |
| 20260509115027 | 67 | 179 | 1.0 | 3.0 | 0.00 | 0.00 | 0.00 | 86 | 1010.5 |
| 20260509114025 | 67 | 22 | 0.0 | 1.0 | 0.00 | 0.06 | 0.00 | 86 | 1010.0 |
| 20260509113023 | 67 | 0.0 | 1.0 | 0.00 | 0.06 | 0.00 | 85 | 1009.8 | |
| 20260509112021 | 68 | 329 | 1.0 | 3.0 | 0.00 | 0.06 | 0.00 | 85 | 1009.6 |
| 20260509111018 | 67 | 184 | 1.0 | 3.0 | 0.00 | 0.06 | 0.00 | 84 | 1009.6 |
| 20260509110029 | 67 | 212 | 1.0 | 4.0 | 0.00 | 0.06 | 0.00 | 83 | 1009.8 |
| 20260509105026 | 67 | 16 | 0.0 | 2.0 | 0.00 | 0.06 | 0.00 | 82 | 1009.5 |
| 20260509104023 | 67 | 14 | 0.0 | 1.0 | 0.00 | 0.06 | 0.00 | 81 | 1009.6 |
| 20260509103021 | 68 | 0.0 | 0.0 | 0.00 | 0.06 | 0.00 | 79 | 1009.5 | |
| 20260509102020 | 69 | 170 | 0.0 | 1.0 | 0.00 | 0.06 | 0.00 | 78 | 1009.5 |
| 20260509101051 | 69 | 200 | 0.0 | 2.0 | 0.00 | 0.06 | 0.00 | 78 | 1009.3 |
| 20260509100048 | 69 | 196 | 1.0 | 2.0 | 0.00 | 0.06 | 0.00 | 77 | 1009.4 |
| 20260509095025 | 70 | 218 | 1.0 | 2.0 | 0.00 | 0.06 | 0.00 | 76 | 1009.3 |
| 20260509094022 | 70 | 65 | 1.0 | 2.0 | 0.00 | 0.06 | 0.00 | 75 | 1009.0 |
| 20260509093040 | 70 | 34 | 1.0 | 2.0 | 0.00 | 0.06 | 0.00 | 75 | 1008.5 |
| 20260509092029 | 70 | 344 | 0.0 | 2.0 | 0.00 | 0.06 | 0.00 | 76 | 1008.5 |
| 20260509091027 | 70 | 30 | 1.0 | 3.0 | 0.00 | 0.06 | 0.00 | 79 | 1008.4 |
| 20260509090027 | 70 | 81 | 3.0 | 6.0 | 0.00 | 0.06 | 0.00 | 82 | 1008.0 |
| 20260509085044 | 70 | 194 | 1.0 | 3.0 | 0.00 | 0.06 | 0.00 | 83 | 1007.1 |
| 20260509084021 | 70 | 171 | 3.0 | 6.0 | 0.00 | 0.06 | 0.00 | 82 | 1007.2 |
| 20260509083019 | 70 | 115 | 3.0 | 6.0 | 0.00 | 0.06 | 0.00 | 81 | 1007.0 |
| 20260509082028 | 70 | 81 | 4.0 | 6.0 | 0.00 | 0.06 | 0.00 | 81 | 1006.7 |
| 20260509081029 | 69 | 64 | 3.0 | 7.0 | 0.00 | 0.06 | 0.00 | 83 | 1007.1 |
| 20260509080026 | 69 | 46 | 1.0 | 3.0 | 0.00 | 0.06 | 0.00 | 86 | 1007.8 |
| 20260509075023 | 69 | 168 | 1.0 | 3.0 | 0.00 | 0.06 | 0.00 | 86 | 1008.8 |
| 20260509074020 | 69 | 174 | 1.0 | 3.0 | 0.00 | 0.06 | 0.00 | 87 | 1009.5 |
| 20260509073028 | 69 | 204 | 2.0 | 5.0 | 0.00 | 0.06 | 0.00 | 87 | 1009.9 |
| 20260509072027 | 69 | 189 | 3.0 | 6.0 | 0.00 | 0.06 | 0.00 | 88 | 1010.2 |
| 20260509071047 | 69 | 238 | 2.0 | 4.0 | 0.00 | 0.06 | 0.00 | 88 | 1010.2 |
| 20260509070024 | 69 | 191 | 4.0 | 7.0 | 0.00 | 0.06 | 0.00 | 88 | 1011.0 |
| 20260509065021 | 69 | 187 | 4.0 | 7.0 | 0.00 | 0.06 | 0.00 | 88 | 1011.4 |
| 20260509064018 | 69 | 204 | 4.0 | 5.0 | 0.00 | 0.06 | 0.00 | 88 | 1011.6 |
| 20260509063027 | 69 | 196 | 2.0 | 4.0 | 0.00 | 0.06 | 0.00 | 87 | 1011.5 |
| 20260509062025 | 69 | 176 | 2.0 | 3.0 | 0.00 | 0.06 | 0.00 | 87 | 1011.4 |
| 20260509061023 | 69 | 177 | 0.0 | 2.0 | 0.00 | 0.06 | 0.00 | 87 | 1011.5 |
| 20260509060024 | 69 | 0.0 | 0.0 | 0.00 | 0.06 | 0.00 | 86 | 1011.3 | |
| 20260509055021 | 70 | 0.0 | 0.0 | 0.00 | 0.06 | 0.00 | 85 | 1011.3 | |
| 20260509054028 | 70 | 175 | 0.0 | 1.0 | 0.00 | 0.06 | 0.00 | 85 | 1011.3 |
| 20260509053026 | 70 | 0.0 | 0.0 | 0.00 | 0.06 | 0.00 | 85 | 1011.5 | |
| 20260509052024 | 70 | 0.0 | 1.0 | 0.00 | 0.06 | 0.00 | 84 | 1011.5 | |
| 20260509051025 | 71 | 96 | 0.0 | 2.0 | 0.00 | 0.06 | 0.00 | 84 | 1011.5 |
| 20260509050022 | 71 | 292 | 0.0 | 1.0 | 0.00 | 0.06 | 0.00 | 83 | 1011.0 |
| 20260509045020 | 71 | 48 | 0.0 | 2.0 | 0.00 | 0.06 | 0.06 | 83 | 1010.7 |
| 20260509044028 | 71 | 66 | 1.0 | 3.0 | 0.00 | 0.06 | 0.06 | 82 | 1010.4 |
| 20260509043025 | 71 | 82 | 1.0 | 2.0 | 0.00 | 0.06 | 0.06 | 82 | 1010.3 |
| 20260509042047 | 71 | 116 | 2.0 | 3.0 | 0.00 | 0.06 | 0.06 | 81 | 1010.2 |
| 20260509041021 | 72 | 102 | 2.0 | 3.0 | 0.00 | 0.06 | 0.06 | 81 | 1010.3 |
| 20260509040022 | 72 | 60 | 1.0 | 3.0 | 0.00 | 0.06 | 0.06 | 80 | 1010.4 |
| 20260509035019 | 72 | 69 | 2.0 | 3.0 | 0.00 | 0.06 | 0.06 | 80 | 1010.3 |
| 20260509034025 | 72 | 39 | 1.0 | 3.0 | 0.00 | 0.06 | 0.06 | 80 | 1010.5 |
| 20260509033024 | 72 | 21 | 1.0 | 3.0 | 0.00 | 0.06 | 0.06 | 80 | 1010.4 |
| 20260509032022 | 72 | 67 | 2.0 | 4.0 | 0.00 | 0.06 | 0.06 | 80 | 1010.0 |
| 20260509031020 | 72 | 58 | 3.0 | 6.0 | 0.00 | 0.06 | 0.06 | 79 | 1009.3 |
| 20260509030020 | 72 | 73 | 4.0 | 7.0 | 0.00 | 0.06 | 0.06 | 79 | 1008.9 |
| 20260509025027 | 72 | 55 | 3.0 | 6.0 | 0.00 | 0.06 | 0.06 | 79 | 1009.2 |
| 20260509024045 | 72 | 78 | 3.0 | 6.0 | 0.00 | 0.06 | 0.06 | 78 | 1008.9 |
| 20260509023023 | 72 | 92 | 2.0 | 4.0 | 0.00 | 0.06 | 0.06 | 78 | 1008.6 |
| 20260509022020 | 72 | 83 | 2.0 | 4.0 | 0.00 | 0.06 | 0.06 | 77 | 1008.4 |
| 20260509021019 | 73 | 102 | 5.0 | 10.0 | 0.00 | 0.06 | 0.06 | 77 | 1008.1 |
| 20260509020019 | 73 | 94 | 4.0 | 9.0 | 0.00 | 0.06 | 0.06 | 76 | 1007.9 |
| 20260509015025 | 73 | 96 | 3.0 | 6.0 | 0.00 | 0.06 | 0.06 | 76 | 1008.5 |
| 20260509014023 | 73 | 126 | 2.0 | 4.0 | 0.00 | 0.06 | 0.06 | 75 | 1008.7 |
| 20260509013022 | 73 | 69 | 2.0 | 3.0 | 0.00 | 0.06 | 0.06 | 75 | 1008.7 |
| 20260509012020 | 73 | 45 | 2.0 | 5.0 | 0.00 | 0.06 | 0.06 | 75 | 1008.7 |
| 20260509011021 | 73 | 95 | 2.0 | 4.0 | 0.00 | 0.06 | 0.06 | 74 | 1008.6 |
| 20260509010026 | 73 | 173 | 2.0 | 3.0 | 0.00 | 0.06 | 0.06 | 74 | 1008.4 |
| 20260509005052 | 74 | 124 | 2.0 | 5.0 | 0.00 | 0.06 | 0.06 | 73 | 1008.3 |
| 20260509004022 | 74 | 125 | 2.0 | 5.0 | 0.00 | 0.06 | 0.06 | 73 | 1008.1 |
| 20260509003023 | 74 | 115 | 3.0 | 7.0 | 0.00 | 0.06 | 0.06 | 72 | 1008.2 |
| 20260509002023 | 74 | 147 | 2.0 | 6.0 | 0.00 | 0.06 | 0.06 | 72 | 1008.1 |
| 20260509001020 | 74 | 147 | 3.0 | 6.0 | 0.00 | 0.06 | 0.06 | 72 | 1008.1 |
| 20260509000035 | 74 | 125 | 3.0 | 6.0 | 0.00 | 0.06 | 0.06 | 72 | 1008.3 |
| 20260508235023 | 74 | 249 | 2.0 | 4.0 | 0.00 | 0.06 | 0.06 | 71 | 1008.5 |
| 20260508234021 | 75 | 61 | 4.0 | 6.0 | 0.00 | 0.06 | 0.06 | 70 | 1008.5 |
| 20260508233025 | 75 | 129 | 2.0 | 5.0 | 0.00 | 0.06 | 0.06 | 70 | 1008.5 |
| 20260508232043 | 75 | 96 | 4.0 | 7.0 | 0.00 | 0.06 | 0.06 | 69 | 1008.6 |
| 20260508231019 | 75 | 99 | 2.0 | 5.0 | 0.00 | 0.06 | 0.06 | 69 | 1008.7 |
| 20260508230044 | 75 | 105 | 4.0 | 7.0 | 0.00 | 0.06 | 0.06 | 68 | 1008.6 |
| 20260508225022 | 76 | 90 | 4.0 | 8.0 | 0.00 | 0.06 | 0.06 | 67 | 1008.6 |
| 20260508224020 | 76 | 123 | 4.0 | 7.0 | 0.00 | 0.06 | 0.06 | 66 | 1008.6 |
| 20260508223024 | 76 | 152 | 4.0 | 7.0 | 0.00 | 0.06 | 0.06 | 66 | 1008.8 |
| 20260508222021 | 78 | 62 | 4.0 | 7.0 | 0.00 | 0.06 | 0.06 | 63 | 1008.6 |
| 20260508221025 | 78 | 77 | 5.0 | 7.0 | 0.00 | 0.06 | 0.06 | 63 | 1008.6 |
| 20260508220022 | 78 | 57 | 5.0 | 9.0 | 0.00 | 0.06 | 0.06 | 62 | 1008.7 |
| 20260508215041 | 78 | 77 | 5.0 | 9.0 | 0.00 | 0.06 | 0.06 | 61 | 1008.8 |
| 20260508214019 | 78 | 142 | 4.0 | 9.0 | 0.00 | 0.06 | 0.06 | 61 | 1008.9 |
| 20260508213022 | 78 | 101 | 5.0 | 8.0 | 0.00 | 0.06 | 0.06 | 60 | 1008.9 |
| 20260508212019 | 78 | 72 | 4.0 | 9.0 | 0.00 | 0.06 | 0.06 | 60 | 1009.1 |
| 20260508211024 | 78 | 86 | 5.0 | 7.0 | 0.00 | 0.06 | 0.06 | 60 | 1009.2 |
| 20260508210022 | 79 | 42 | 4.0 | 7.0 | 0.00 | 0.06 | 0.06 | 59 | 1009.5 |
| 20260508205019 | 77 | 107 | 4.0 | 8.0 | 0.00 | 0.06 | 0.06 | 60 | 1009.7 |
| 20260508204024 | 78 | 62 | 4.0 | 8.0 | 0.00 | 0.06 | 0.06 | 59 | 1009.4 |
| 20260508203022 | 77 | 48 | 5.0 | 8.0 | 0.00 | 0.06 | 0.06 | 59 | 1009.5 |
| 20260508202018 | 76 | 86 | 5.0 | 7.0 | 0.00 | 0.06 | 0.06 | 61 | 1010.4 |
| 20260508200020 | 74 | 178 | 2.0 | 3.0 | 0.00 | 0.06 | 0.06 | 64 | 1011.0 |
| 20260508195029 | 75 | 168 | 3.0 | 7.0 | 0.00 | 0.06 | 0.06 | 63 | 1011.1 |
| 20260508194043 | 75 | 91 | 4.0 | 8.0 | 0.00 | 0.06 | 0.06 | 62 | 1010.9 |
| 20260508193020 | 75 | 157 | 3.0 | 6.0 | 0.00 | 0.06 | 0.06 | 62 | 1011.0 |
| 20260508192023 | 75 | 97 | 3.0 | 7.0 | 0.00 | 0.06 | 0.06 | 62 | 1010.9 |
| 20260508191041 | 74 | 120 | 4.0 | 8.0 | 0.00 | 0.06 | 0.06 | 63 | 1011.0 |
| 20260508190019 | 75 | 100 | 4.0 | 8.0 | 0.00 | 0.06 | 0.06 | 63 | 1011.0 |
| 20260508185028 | 75 | 122 | 3.0 | 7.0 | 0.00 | 0.06 | 0.06 | 61 | 1011.1 |
| 20260508184042 | 76 | 77 | 3.0 | 5.0 | 0.00 | 0.06 | 0.06 | 60 | 1011.2 |
| 20260508183019 | 76 | 134 | 3.0 | 6.0 | 0.00 | 0.06 | 0.06 | 60 | 1011.3 |
| 20260508182022 | 77 | 106 | 3.0 | 7.0 | 0.00 | 0.06 | 0.06 | 59 | 1011.3 |
| 20260508181040 | 76 | 95 | 2.0 | 4.0 | 0.00 | 0.06 | 0.06 | 59 | 1011.4 |
| 20260508180029 | 75 | 130 | 3.0 | 6.0 | 0.00 | 0.06 | 0.06 | 60 | 1011.8 |
| 20260508175032 | 75 | 64 | 4.0 | 8.0 | 0.00 | 0.06 | 0.06 | 60 | 1012.0 |
| 20260508174041 | 75 | 84 | 3.0 | 6.0 | 0.00 | 0.06 | 0.06 | 60 | 1012.2 |